Regional Weather Roundup
Issued by NWS

Home | Current Version | Previous Version | Text Only | Print | Product List | Glossary Off
Versions: 1 2 3 4 5 6 7 8 9 10 11 12 13 14 15 16 17 18 19 20 21 22 23 24 25 26 27 28 29 30 31 32 33 34 35 36 37 38 39 40 41 42 43 44 45 46 47 48 49 50

000
ASUS43 KDTX 250701
RWRMI
MICHIGAN HOURLY REGIONAL WEATHER ROUNDUP
NATIONAL WEATHER SERVICE DETROIT/PONTIAC MI
300 AM EDT THU MAY 25 2017

NOTE: "FAIR" INDICATES FEW OR NO CLOUDS BELOW 12,000 FEET WITH NO
SIGNIFICANT WEATHER AND/OR OBSTRUCTION TO VISIBILITY.

MIZ047>049-052>055-059>063-066>070-074>076-081>083-250800-
SOUTHEAST LOWER MICHIGAN

CITY           SKY/WX    TMP DP  RH WIND       PRES   REMARKS
ADRIAN         LGT RAIN  58  57  97 E14       29.44F
ANN ARBOR      CLOUDY    58  58 100 NE6       29.45F FOG
DETROIT CITY   CLOUDY    58  57  97 E13       29.48S
DETROIT        DRIZZLE   59  57  93 E10       29.47S
FLINT          LGT RAIN  56  55  97 NE9       29.50F

CITY           SKY/WX    TMP DP  RH WIND       PRES   REMARKS
JACKSON        RAIN      59  57  93 NE7       29.45F FOG
LANSING        CLOUDY    58  54  86 NE12      29.50F FOG
LAPEER         NOT AVBL
MT. CLEMENS    CLOUDY    58  58 100 NE9       29.48S
PONTIAC        CLOUDY    58  55  90 E8G17     29.47F
PORT HOPE        N/A     52  49  89 NE15      29.56F
TRI CITIES     LGT RAIN  55  54  96 NE17      29.55F FOG
MIDLAND        NOT AVBL
$$
MIZ043>046-050>051-056>058-064>065-071>073-077>080-250800-
SOUTHWEST LOWER MICHIGAN

CITY           SKY/WX    TMP DP  RH WIND       PRES   REMARKS
BATTLE CREEK   CLOUDY    57  57 100 NE12      29.48S FOG
BENTON HARBOR  LGT RAIN  58  55  90 VRB5      29.49F
HOLLAND        CLOUDY    59  54  83 VRB6G17   29.52F
GRAND RAPIDS   CLOUDY    56  56 100 NE10      29.51F FOG
KALAMAZOO      CLOUDY    57  54  89 N7        29.48S FOG
MUSKEGON       CLOUDY    57  55  93 NE10      29.55F
$$
MIZ016>042-250800-
NORTHERN LOWER MICHIGAN

CITY           SKY/WX    TMP DP  RH WIND       PRES   REMARKS
ALPENA         CLOUDY    54  50  86 E8        29.66S
GAYLORD        LGT RAIN  53  49  86 NE9       29.65F
HOUGHTON LAKE  LGT RAIN  53  51  93 NE8       29.61F
MANISTEE       CLOUDY    55  51  86 NE7       29.59F
PELLSTON       CLOUDY    57  50  77 NE12      29.67F
TRAVERSE CITY  CLOUDY    51  49  92 NW3       29.62F
$$
MIZ007>008-015-250800-
EASTERN UPPER MICHIGAN

CITY           SKY/WX    TMP DP  RH WIND       PRES   REMARKS
KINROSS        LGT RAIN  53  51  93 NE6       29.71S
S. S. MARIE    CLOUDY    57  49  74 VRB3      29.70F
MUNISING         N/A     44  42  93 N3        29.72F
$$
MIZ004>006-011>014-085-250800-
CENTRAL UPPER MICHIGAN

CITY           SKY/WX    TMP DP  RH WIND       PRES   REMARKS
ESCANABA       CLOUDY    49  44  83 N6        29.70F
MENOMINEE      CLOUDY    51  48  89 NE7       29.68F
$$
MIZ001>003-009>011-084-250800-
WESTERN UPPER MICHIGAN

CITY           SKY/WX    TMP DP  RH WIND       PRES   REMARKS
IRON MOUNTAIN  PTCLDY    48  43  82 VRB3      29.70F
HOUGHTON       CLEAR     40  37  89 CALM      29.75S
COPPER HARBOR    N/A     42  40  92 W3        29.75F
IRONWOOD       MOCLDY    40  39  97 CALM      29.75S
$$

ABBREVIATIONS USED IN REMARKS
   TC - TEMPERATURE IN CELSIUS
  WCI - WIND CHILL INDEX
   HX - HEAT INDEX
  VSB - VISIBILITY





USA.gov is the U.S. government's official web portal to all federal, state and local government web resources and services.